Location: La Sioule Rivi�re
(46.3664°N, 3.3197°E)
Time: 12:25:09
(UTC+00:00)

Cosmos 1300 - Pass Details

Date: 29 October 2020
Orbit: 511 x 513 km, 82.5° (Epoch: 23 November)

Event Time Altitude Azimuth Distance (km) Brightness Sun altitude
Rises 17:04:21 0° 177° (S) 2,615 6.4 -5.5°
Reaches altitude 10° 17:06:30 10° 173° (S) 1,734 5.5 -5.9°
Maximum altitude 17:10:13 56° 95° (E) 616 2.8 -6.5°
Drops below altitude 10° 17:13:59 10° 17° (NNE) 1,749 5.1 -7.1°
Sets 17:16:09 0° 13° (NNE) 2,641 6.0 -7.5°
